{"data":{"norad_id":43641,"epoch":"2026-05-25T04:22:48.391392Z","epoch_age_seconds":55688,"freshness":"FRESH","line1":"1 43641U 18076A   26145.18250453 -.00000349  00000+0 -37335-4 0  9998","line2":"2 43641  97.8892 332.2653 0001513  81.2655 278.8730 14.82151966412694","mean_motion":14.82151966,"eccentricity":0.0001513,"inclination_deg":97.8892,"raan_deg":332.2653,"arg_perigee_deg":81.2655,"mean_anomaly_deg":278.873,"bstar":-3.7335e-5,"rev_number":41269,"period_min":97.15602941082,"perigee_km":621.48044157432,"apogee_km":623.59884632677,"semimajor_km":7000.6766439505,"source":"CELESTRAK","updated_at":"2026-05-25T13:37:55.863499Z"}}